Terminal Aerodrome Forecast
Issued by NWS State College, PA

Home | Current Version | Previous Version | Text Only | Print | Product List | Glossary On
Versions: 1 2 3 4 5 6 7 8 9 10 11 12 13 14 15 16 17 18 19 20 21 22 23 24 25 26 27 28 29 30 31 32 33 34 35 36 37 38 39 40 41 42 43 44 45 46 47 48 49 50
000
FTUS41 KCTP 230525
TAFMDT
TAF
KMDT 230525Z 2306/2406 15003KT P6SM BKN200
     FM230800 15002KT 4SM BR SCT010 BKN080
     FM231000 00000KT 3/4SM BR OVC003
     FM231400 18003KT 4SM BR OVC012
     FM231600 20006KT P6SM BKN060=

USA.gov is the U.S. government's official web portal to all federal, state and local government web resources and services.